Location: Beccas
(43.4309°N, 0.1528°E)
Time: 20:45:03
(UTC+00:00)

H-2A R/B - Pass Details

Date: 15 October 2021
Orbit: 733 x 837 km, 98.2° (Epoch: 29 November)

Event Time Altitude Azimuth Distance (km) Brightness Sun altitude
Rises 18:54:39 0° 194° (SSW) 3,292 5.4 -18.7°
Reaches altitude 10° 18:57:13 10° 204° (SSW) 2,383 4.8 -19.1°
Maximum altitude 19:01:50 30° 265° (W) 1,424 4.1 -20.0°
Drops below altitude 10° 19:06:35 10° 327° (NNW) 2,444 5.1 -20.8°
Sets 19:09:15 0° 337° (NNW) 3,390 5.8 -21.3°
